Volver al catálogo

FENGYUN 1C DEB

ActivoSSO
NORAD 30394·DEBRIS·🇨🇳 China

Lanzado May 10, 1999 desde Taiyuan Satellite Launch Center

Loading…

Próximos Pases (próximas 24 horas)

TLE

ActualizadoSource: Space-Track

Época: Sep 14, 2026, 14:15 UTC

1 30394U 99025ADH 26257.59390235  .00000115  00000-0  11383-3 0  9998
2 30394  99.4058 297.0148 0089899  74.5362  87.4697 13.95966709999527

Sigue FENGYUN 1C DEB en tiempo real con AllMySat

Download on the App Store